Flag for Colombia Weather past 2 weeks in Cali, Colombia

Now
70 °F

Partly sunny.


Feels Like: 70 °F
Forecast: 68 / 80 °F
Wind: 3 mph from Southwest

Location: Cali / Alfonso Bonillaaragon

Current Time: Sep 22, 2014 at 10:15:42 AM

Latest Report: Sep 22, 2014 at 9:00 AM


Visibility: 6 mi

Pressure: 30.13 "Hg

Humidity: 83%

Dew point: 64 °F

Location of CaliLocation

Historic Weather in Cali — Graph

°F

Cali temperature yesterday

Maximum temperature yesterday: 90 °F (at 3:00 PM)
Minimum temperature yesterday: 68 °F (at 6:00 AM)
Average temperature yesterday: 76 °F

Past Weeks' High & Low Weather Summary

 TemperatureHumidityPressure
High93 °F (Sep 9, 2:00 PM)94% (Sep 10, 3:00 AM)30.14 "Hg (Sep 10, 3:00 AM)
Low66 °F (Sep 9, 6:00 AM)36% (Sep 9, 2:00 PM)28.19 "Hg (Sep 15, 2:00 PM)
Average76 °F71%29.96 "Hg
* Reported Sep 7 9:00 AM — Sep 22 9:00 AM, Cali, Weather by CustomWeather, © 2014

Note: Actual official high and low records may vary slightly from our data, if they occured in-between our weather recording intervals... More about our weather records

Advertising

Cali weather history for previous 24 hours

 ConditionsComfort  
Time TempWeatherWind HumidityBarometerVisibility
9:00 AM
Sep 22
70 °FPartly sunny.3 mph83%30.13 "Hg6 mi
8:00 AM68 °FMixture of precip. Mostly cloudy.No wind94%30.11 "Hg4 mi
7:00 AM68 °FDrizzle. Mostly cloudy.2 mph94%30.07 "Hg1 mi
6:00 AM68 °FDrizzle. Mostly cloudy.3 mph94%30.04 "Hg2 mi
5:00 AM68 °FPassing clouds.5 mph94%30.01 "Hg6 mi
4:00 AM68 °FPassing clouds.No wind94%29.98 "Hg6 mi
3:00 AM68 °FPassing clouds.3 mph88%29.99 "Hg6 mi
2:00 AM68 °FPassing clouds.3 mph94%30.00 "Hg6 mi
1:00 AM68 °FPassing clouds.3 mph94%30.00 "Hg6 mi
12:00 AM68 °FPassing clouds.5 mph94%30.02 "Hg6 mi
11:00 PM
Sep 21
68 °FPassing clouds.12 mph88%30.02 "Hg6 mi
10:00 PM70 °FPassing clouds.3 mph88%30.01 "Hg6 mi
9:00 PM73 °FPassing clouds.7 mph74%29.99 "Hg6 mi
8:00 PM75 °FPassing clouds.9 mph69%29.97 "Hg6 mi
7:00 PM77 °FThunderstorms. Passing clouds.14 mph65%29.93 "HgN/A
6:00 PM79 °FPartly sunny.10 mph58%29.91 "HgN/A
5:00 PM82 °FPartly sunny.15 mph51%29.90 "HgN/A
4:00 PM88 °FPartly sunny.15 mph43%29.87 "HgN/A
3:00 PM90 °FScattered showers. Broken clouds.3 mph41%29.88 "HgN/A
2:00 PM88 °FScattered clouds.2 mph43%29.92 "HgN/A
1:00 PM86 °FScattered clouds.3 mph46%29.96 "HgN/A
12:00 PM82 °FScattered clouds.5 mph58%30.01 "Hg6 mi
11:00 AM81 °FScattered clouds.5 mph62%30.07 "Hg6 mi
10:00 AM79 °FPartly sunny.7 mph65%30.09 "Hg6 mi
Weather by CustomWeather, © 2014

See weather overviewHow to use our weather pages